sat.trackr.live / text

‹ back to catalog

TJS-13

NORAD 62188 · 2024-227A

PAYLOAD ACTIVE UNKNOWN

§ Identity

Operator
Country
PRC
Launch date
2024-12-03
Launch site
XICLF
Launch vehicle
Mass (kg)
RCS (m²)

External: N2YO · Heavens-Above · Gunter

§ Orbital elements

Epoch: 2026-05-06T12:41:27.123360Z

Period
717.48 min
Inclination
63.6994°
Eccentricity
0.6941075
Mean motion
2.00701816 rev/d
Perigee alt
1,742.7 km
Apogee alt
38,597.3 km
Semi-major
26,548.2 km
B*
1.0000e-4
RAAN
43.7759°
Arg perigee
269.5448°
Mean anomaly
17.5972°
Rev number
1,041

§ Raw data

TJS-131 62188U 24227A   26126.52878615  .00181812  00000+0  10000-3 0  99952 62188  63.6994  43.7759 6941075 269.5448  17.5972  2.00701816 10411

JSON: /api/v1/satellites/62188 · /tle

For live sub-satellite position, see the globe view (requires WebGL).

§ Visibility from observer

Set your observer location to see the next 7 days of passes ≥ 10°. The values pass through the URL so the page stays shareable.

No JS? Fill the form by hand. The geolocation button needs JavaScript.